• Processing (Info)

  • MPEC 2016-U60 : 2016 UD26

    The following Minor Planet Electronic Circular may be linked-to from your own Web pages, but must not otherwise be redistributed electronically.

    A form allowing access to any MPEC is at the bottom of this page.


    Read MPEC 2016-U59 Read MPEC 2016-U61


    M.P.E.C. 2016-U60                                Issued 2016 Oct. 24, 14:03 UT
    
         The Minor Planet Electronic Circulars contain information on unusual
             minor planets and routine data on comets.  They are published
        on behalf of Division F of the International Astronomical Union by the
              Minor Planet Center, Smithsonian Astrophysical Observatory,
                              Cambridge, MA 02138, U.S.A.
    
                 Prepared using the Tamkin Foundation Computer Network
    
                                  MPC@CFA.HARVARD.EDU
                URL https://www.minorplanetcenter.net/    ISSN 1523-6714
    
                                       2016 UD26
    
    Observations:
         K16U26D* C2016 10 22.49400 03 35 25.07 +52 35 09.5          19.3 VqEU060G96
         K16U26D  C2016 10 22.49831 03 35 25.78 +52 34 36.9          19.5 VqEU060G96
         K16U26D  C2016 10 22.50268 03 35 26.55 +52 34 03.6          18.9 VqEU060G96
         K16U26D  C2016 10 22.50705 03 35 27.19 +52 33 31.7                qEU060G96
         K16U26D  C2016 10 22.52082 03 35 29.58 +52 31 45.9          19.5 VqEU060G96
         K16U26D  C2016 10 22.52441 03 35 30.21 +52 31 18.7          19.4 VqEU060G96
         K16U26D  C2016 10 22.52522 03 35 30.35 +52 31 13.0          19.2 VqEU060G96
         K16U26D  C2016 10 22.52603 03 35 30.56 +52 31 06.4          19.2 VqEU060G96
         K16U26D KC2016 10 22.84893 03 37 05.39 +51 53 59.5          19.8 RqEU060104
         K16U26D KC2016 10 22.85304 03 37 06.10 +51 53 35.4          19.9 RqEU060104
         K16U26D KC2016 10 22.87226 03 37 09.09 +51 51 40.1          19.3 RqEU060104
         K16U26D KC2016 10 22.92265 03 37 17.20 +51 46 04.2                qEU060J95
         K16U26D KC2016 10 22.92547 03 37 17.69 +51 45 47.8                qEU060J95
         K16U26D KC2016 10 22.92813 03 37 18.14 +51 45 31.2          19.4 RqEU060J95
         K16U26D KC2016 10 23.06984 03 37 33.08 +51 31 03.8          19.1 RoEU060461
         K16U26D KC2016 10 23.07571 03 37 33.80 +51 30 26.0          19.2 RoEU060461
         K16U26D KC2016 10 24.33492 03 40 56.52 +49 34 25.5          20.4 RqEU060H36
         K16U26D KC2016 10 24.34337 03 40 57.05 +49 33 44.3          20.2 RqEU060H36
         K16U26D KC2016 10 24.35181 03 40 57.55 +49 33 02.4          20.1 RqEU060H36
         K16U26D KC2016 10 24.36025 03 40 58.05 +49 32 20.2          20.6 RqEU060H36
    
    Observer details:
    104 San Marcello Pistoiese.  Observers P. Bacci, M. Maestripieri.  Measurers
        P. Bacci, L. Tesi, G. Fagioli.  0.60-m f/4 reflector + CCD.
    461 University of Szeged, Piszkesteto Stn. (Konkoly).  Observer K. Sarneczky.
        0.60-m Schmidt + CCD.
    G96 Mt. Lemmon Survey.  Observer R. G. Matheny.  Measurers E. J. Christensen,
        D. C. Fuls, A. R. Gibbs, A. D. Grauer, J. A. Johnson, R. A. Kowalski,
        S. M. Larson, G. J. Leonard, R. G. Matheny, R. L. Seaman, F. C. Shelly.
        1.5-m reflector + 10K CCD.
    H36 Sandlot Observatory, Scranton.  Observer G. Hug.  0.56-m reflector + CCD.
    J95 Great Shefford.  Observer P. Birtwhistle.  0.40-m f/6.0 Schmidt-Cassegrain
        + CCD.
    
    Orbital elements:
    2016 UD26                                                Earth MOID = 0.0148 AU
    Epoch 2016 July 31.0 TT = JDT 2457600.5                 MPC
    M 346.21984              (2000.0)            P               Q
    n   0.25173800     Peri.  344.01642     +0.99443897     +0.10449035
    a   2.4841064      Node    10.01336     -0.08643323     +0.88110027
    e   0.6163582      Incl.    4.33703     -0.06017001     +0.46124190
    P   3.92           H   24.3           G   0.15           U   5
    Residuals in seconds of arc
    161022 G96  0.3-  0.1+    161022 G96  0.4+  0.1-    161023 461  0.3-  0.1+
    161022 G96  0.2-  0.1+    161022 104  0.3+  0.3-    161023 461  0.4-  0.3+
    161022 G96  0.2+  0.1-    161022 104  0.3+  0.3+    161024 H36  0.5-  0.6-
    161022 G96  0.6-  1.1+    161022 104  1.3-  0.6+    161024 H36  0.1-  0.2+
    161022 G96  0.2-  0.2-    161022 J95  0.7-  0.3-    161024 H36  0.1-  0.4+
    161022 G96  0.2-  0.1-    161022 J95  0.3-  0.3+    161024 H36  0.0   0.4+
    161022 G96  0.2-  0.3+    161022 J95  0.0   0.2-
    
    Ephemeris:
    2016 UD26                a,e,i = 2.48, 0.62, 4                   q = 0.9530
    Date    TT    R. A. (2000) Decl.     Delta      r     Elong.  Phase     V
    2016 09 24    16 01 04.5 -29 37 25   0.1267  0.9530    63.3   109.8    23.9
    ...
    2016 10 09    16 23 55.4 -12 57 10   0.03696 0.9760    51.0   127.3    22.5
    ...
    2016 10 17    01 09 43.2 +76 11 52   0.02166 1.0052   113.0    65.9    18.3
    ...
    2016 10 23    03 37 23.8 +51 38 24   0.05454 1.0337   134.3    43.5    19.7
    2016 10 24    03 40 11.4 +50 02 24   0.06049 1.0390   136.0    41.7    19.9
    2016 10 25    03 42 15.2 +48 42 27   0.06650 1.0444   137.5    40.0    20.1
    ...
    2016 10 31    03 47 21.5 +43 43 13   0.1034  1.0793   145.2    31.7    20.9
    ...
    2016 11 08    03 47 20.5 +40 13 02   0.1551  1.1317   153.6    22.9    21.6
    ...
    2016 11 23    03 44 04.5 +36 09 22   0.2641  1.2435   164.0    12.6    22.6
    
    A. U. Tomatic                (C) Copyright 2016 MPC           M.P.E.C. 2016-U60
    

    Read MPEC 2016-U59 Read MPEC 2016-U61


    MPEC number:

    Enter an MPEC number in one of the following forms:

    • 1997-B01 (the full form)
    • J97B01 (the packed version of the full form)
    • B01 (the abbreviated form)